Location: Newark
(44.3681°N, 100.3364°W)
Time: 11:12:40
(UTC+00:00)

deb Explorer IX - Pass Details

Date: 24 February 2020
Orbit: 547 x 1100 km, 38.8° (Epoch: 05 April)

Event Time Altitude Azimuth Distance (km) Brightness Sun altitude
Rises 18:31:08 0° 258° (WSW) 2,827 ? 35.9°
Reaches altitude 10° 18:33:36 10° 251° (WSW) 1,875 ? 36.0°
Maximum altitude 18:37:32 38° 182° (S) 842 ? 36.0°
Drops below altitude 10° 18:41:21 10° 113° (ESE) 1,811 ? 36.1°
Sets 18:43:41 0° 106° (ESE) 2,717 ? 36.1°
